Weather History for KRWI - November, 2013

Change the Weather History Date:

Friday, November 8, 2013

  Actual Average Record
Temperature  
Mean Temperature 46 °F -  
Max Temperature 57 °F 66 °F 82 °F (1986)
Min Temperature 34 °F 40 °F 21 °F (1967)
Degree Days  
Heating Degree Days 20    
Moisture  
Dew Point 30 °F    
Average Humidity 60    
Maximum Humidity 92    
Minimum Humidity 29    
Precipitation  
Precipitation 0.00 in - - ()
Sea Level Pressure  
Sea Level Pressure 30.24 in    
Wind  
Wind Speed 7 mph (NW)    
Max Wind Speed 13 mph    
Max Gust Speed 18 mph    
Visibility 10 miles    
Events      
Averages and records for this station are not official NWS values.
T = Trace of Precipitation, MM = Missing Value Source: NWS Daily Summary

Daily Weather History Graph

Daily Weather History Graph

Search for Another Location

Airport or City:

Trip Planner

Search our weather history database for the weather conditions in past years. The results will help you decide how hot, cold, wet, or windy it might be!

Date:

Astronomy

Nov. 08, 2013 Rise Set
Actual Time 6:40 AM EST 5:09 PM EST
Civil Twilight 6:14 AM EST 5:36 PM EST
Nautical Twilight 5:43 AM EST 6:06 PM EST
Astronomical Twilight 5:13 AM EST 6:36 PM EST
Moon 11:35 AM EST (11/8) 10:27 PM EST (11/8)
Length of Visible Light 11h 22m
Length of Day
10h 28m
Waxing Crescent, 33% of the Moon is Illuminated
Nov 8
Waxing Crescent
Nov 10
First Quarter
Nov 17
Full
Nov 25
Last Quarter
Dec 2
New

Hourly Weather History & Observations

Time (EST) Temp. Windchill Dew Point Humidity Pressure Visibility Wind Dir Wind Speed Gust Speed Precip Events Conditions
12:53 AM 46.0 °F 41.4 °F 32.0 °F 58% 30.11 in 10.0 mi NNW 9.2 mph - N/A   Clear
1:53 AM 45.0 °F 40.6 °F 32.0 °F 60% 30.13 in 10.0 mi NNW 8.1 mph - N/A   Clear
2:53 AM 44.1 °F 39.0 °F 32.0 °F 63% 30.16 in 10.0 mi NNW 9.2 mph - N/A   Clear
3:53 AM 43.0 °F 37.2 °F 32.0 °F 65% 30.19 in 10.0 mi NNW 10.4 mph - N/A   Clear
4:53 AM 41.0 °F 36.4 °F 32.0 °F 70% 30.21 in 10.0 mi NNW 6.9 mph - N/A   Clear
5:53 AM 39.9 °F 37.8 °F 32.0 °F 73% 30.23 in 10.0 mi NW 3.5 mph - N/A   Clear
6:53 AM 35.1 °F - 30.9 °F 85% 30.24 in 10.0 mi Calm Calm - N/A   Clear
7:53 AM 42.1 °F 39.2 °F 32.0 °F 67% 30.26 in 10.0 mi NW 4.6 mph - N/A   Clear
8:53 AM 48.0 °F - 28.9 °F 48% 30.27 in 10.0 mi NW 9.2 mph - N/A   Clear
9:53 AM 52.0 °F - 26.1 °F 37% 30.28 in 10.0 mi WNW 10.4 mph - N/A   Clear
10:53 AM 54.0 °F - 25.0 °F 33% 30.27 in 10.0 mi NNW 12.7 mph 18.4 mph N/A   Clear
11:53 AM 55.9 °F - 26.1 °F 32% 30.25 in 10.0 mi NNW 9.2 mph - N/A   Clear
12:53 PM 57.0 °F - 25.0 °F 29% 30.23 in 10.0 mi WNW 11.5 mph 18.4 mph N/A   Clear
1:53 PM 57.9 °F - 26.1 °F 30% 30.22 in 10.0 mi North 12.7 mph - N/A   Clear
2:53 PM 57.0 °F - 26.1 °F 30% 30.22 in 10.0 mi WNW 9.2 mph - N/A   Clear
3:53 PM 57.0 °F - 25.0 °F 29% 30.22 in 10.0 mi WNW 11.5 mph - N/A   Clear
4:53 PM 53.1 °F - 27.0 °F 37% 30.24 in 10.0 mi NNW 6.9 mph - N/A   Clear
5:53 PM 44.1 °F - 32.0 °F 63% 30.26 in 10.0 mi Calm Calm - N/A   Clear
6:53 PM 39.9 °F - 34.0 °F 79% 30.29 in 10.0 mi Calm Calm - N/A   Clear
7:53 PM 37.0 °F - 33.1 °F 86% 30.29 in 10.0 mi Calm Calm - N/A   Clear
8:53 PM 36.0 °F - 33.1 °F 89% 30.31 in 10.0 mi Calm Calm - N/A   Clear
9:53 PM 34.0 °F - 32.0 °F 92% 30.33 in 10.0 mi Calm Calm - N/A   Clear
10:53 PM 34.0 °F - 30.9 °F 89% 30.33 in 10.0 mi Calm Calm - N/A   Clear
11:53 PM 34.0 °F - 30.0 °F 85% 30.33 in 10.0 mi Calm Calm - N/A   Clear